Home > Weather > Euskirchen > Past weeks

Flag for Germany Weather for the Past 2 Weeks in Euskirchen, North Rhine-Westphalia, Germany

Now
46 °F

Rain. Partly sunny.


Feels Like: 41 °F
Forecast: 39 / 49 °F
Wind: 13 mph from Southwest

Location: Noervenich

Current Time: Feb 8, 2016 at 10:23:19 AM

Latest Report: Feb 8, 2016 at 9:20 AM


Visibility: 4 mi

Pressure: 29.33 "Hg

Humidity: 82%

Dew point: 41 °F

Location of EuskirchenLocation

Historic Weather in Euskirchen — Graph

°F

Euskirchen Temperature Yesterday

Maximum temperature yesterday: 52 °F (at 4:20 AM)
Minimum temperature yesterday: 45 °F (at 6:20 PM)
Average temperature yesterday: 49 °F

High & Low Weather Summary for the Past Weeks

 TemperatureHumidityPressure
High57 °F (Jan 25, 2:20 PM)100% (Jan 24, 5:20 PM)30.45 "Hg (Jan 24, 5:20 PM)
Low34 °F (Jan 29, 1:20 AM)50% (Feb 7, 4:20 PM)29.33 "Hg (Feb 8, 6:20 AM)
Average47 °F78%30.05 "Hg
* Reported Jan 24 8:20 AM — Feb 8 8:20 AM, Euskirchen, Weather by CustomWeather, © 2016

Note: Actual official high and low records may vary slightly from our data, if they occured in-between our weather recording intervals... More about our weather records

Advertising

Euskirchen Weather History for the Previous 24 Hours

 ConditionsComfort  
Time TempWeatherWind HumidityBarometerVisibility
8:20 AM
Mon, Feb 8
48 °FRain. Partly sunny.16 mph82%29.33 "Hg4 mi
7:20 AM50 °FLight rain. Partly cloudy.14 mph71%29.33 "HgN/A
6:20 AM48 °FPassing clouds.9 mph71%29.33 "HgN/A
5:20 AM46 °FPassing clouds.9 mph71%29.39 "HgN/A
4:20 AM46 °FPartly cloudy.14 mph66%29.42 "HgN/A
3:20 AM46 °FPassing clouds.13 mph66%29.45 "HgN/A
2:20 AM46 °FPassing clouds.15 mph62%29.47 "HgN/A
1:20 AM46 °FPassing clouds.9 mph62%29.53 "HgN/A
12:20 AM46 °FPassing clouds.12 mph62%29.56 "HgN/A
11:20 PM
Sun, Feb 7
46 °FPassing clouds.16 mph62%29.59 "HgN/A
10:20 PM45 °FPassing clouds.10 mph61%29.62 "HgN/A
9:20 PM45 °FPassing clouds.8 mph61%29.65 "HgN/A
8:20 PM45 °FPassing clouds.9 mph61%29.65 "HgN/A
7:20 PM45 °FPassing clouds.8 mph61%29.65 "HgN/A
6:20 PM45 °FPassing clouds.3 mph66%29.65 "HgN/A
5:20 PM48 °FPassing clouds.6 mph54%29.62 "HgN/A
4:20 PM50 °FScattered clouds.10 mph50%29.62 "HgN/A
3:20 PM48 °FBroken clouds.10 mph58%29.62 "HgN/A
2:20 PM50 °FPartly sunny.9 mph54%29.59 "HgN/A
1:20 PM50 °FPartly sunny.8 mph58%29.59 "HgN/A
12:20 PM48 °FPartly sunny.9 mph66%29.56 "HgN/A
11:20 AM46 °FPartly sunny.7 mph71%29.56 "HgN/A
10:20 AM50 °FPartly sunny.8 mph71%29.53 "HgN/A
Weather by CustomWeather, © 2016

See weather overviewHow to use our weather pages